Location: Montr�al
(45.5000°N, 73.5830°W)
Time: 05:22:55
(UTC-04:00)

ISS - Visible Passes

Search period start: 18 April 2014 00:00
Search period end: 28 April 2014 00:00
Orbit: 414 x 419 km, 51.6° (Epoch: 18 April)

Date Brightness Start Highest point End Pass type
(mag) Time Alt. Az. Time Alt. Az. Time Alt. Az.
18 Apr -3.3 21:29:14 10° WNW 21:32:36 76° NNE 21:33:16 53° E visible
19 Apr -2.8 20:40:54 10° NW 20:44:12 53° NNE 20:46:49 15° E visible
19 Apr -1.3 22:17:52 10° WNW 22:19:43 23° WSW 22:19:43 23° WSW visible
20 Apr -2.7 21:29:17 10° WNW 21:32:32 46° SW 21:33:15 39° S visible
21 Apr -3.2 20:40:47 10° WNW 20:44:09 75° SSW 20:46:48 15° SE visible
21 Apr -0.5 22:19:05 10° WSW 22:19:42 11° WSW 22:19:42 11° WSW visible
22 Apr -1.2 21:29:38 10° W 21:32:06 19° SW 21:33:15 16° SSW visible
23 Apr -1.8 20:40:44 10° WNW 20:43:44 31° SW 20:46:43 10° SSE visible
25 Apr -0.6 20:41:24 10° WSW 20:42:57 13° SW 20:44:30 10° SSW visible
